Torna al catalogo

COSMOS 1818 COOLANT

LostLEO
NORAD 50784·DEBRIS·🇷🇺 Russia

Lanciato Feb 1, 1987 da Baikonur Cosmodrome

Loading…

Prossimi Passaggi (prossime 24 ore)

TLE

ObsoletoSource: Space-Track

Epoca: Oct 19, 2022, 14:02 UTC

1 50784U 87011AZ  22292.58521041  .00000545  00000-0  22931-3 0  9998
2 50784  65.0199   2.1557 0012472 264.8554 164.9040 14.34319668527807

Traccia COSMOS 1818 COOLANT in tempo reale con AllMySat

Download on the App Store